Wind_Speed
47 44 33 24 35 41 43 42 38 37 34 34 32 31 29 29 25 21 24 24 21 18 22 26 24 24 20 15 14 16 17 17
45 38 42 45 25 47 48 46 41 39 38 40 40 39 35 30 25 21 23 23 21 20 21 24 23 23 19 15 18 22 22 20
45 41 29 41 46 54 52 51 44 43 43 40 40 38 33 28 24 20 22 25 24 23 24 25 24 25 21 18 19 23 22 22
43 38 36 38 56 61 57 57 50 47 45 41 38 35 32 29 26 23 27 26 26 25 24 25 26 22 23 20 18 20 25 22
49 42 41 43 53 66 60 60 56 51 45 44 43 40 39 36 30 26 28 30 29 26 26 23 23 21 22 21 16 16 21 23
42 49 47 45 45 47 48 59 58 51 47 46 45 43 42 35 29 26 28 32 30 29 27 25 27 23 19 21 19 19 21 24
48 47 42 42 42 46 45 55 56 53 49 47 45 42 41 36 32 29 30 33 34 30 27 28 26 27 23 19 17 20 22 23
48 45 45 41 46 60 60 57 59 53 51 48 44 41 39 36 35 32 33 36 38 35 31 34 28 25 22 20 20 23 25 20
52 52 52 43 48 47 60 64 57 54 52 46 43 38 37 33 32 31 32 35 35 34 34 35 27 24 22 21 24 24 26 23
57 54 49 52 33 48 52 60 58 58 53 46 43 39 36 31 30 29 31 33 33 33 33 32 28 27 23 22 26 27 26 25
52 50 53 45 31 43 51 64 62 58 52 47 44 39 36 31 29 30 31 33 33 34 33 32 29 27 24 21 26 28 27 27
47 48 48 49 45 45 36 51 59 57 52 48 45 42 37 32 29 29 32 33 33 34 32 32 29 28 26 22 25 29 29 29
50 48 48 50 47 44 43 36 56 60 56 50 47 44 37 33 30 30 32 32 32 32 31 31 30 28 26 24 25 26 25 28
37 40 45 48 50 48 44 39 43 60 57 52 47 43 39 35 33 31 33 32 30 30 30 30 31 29 27 25 25 24 24 25
42 42 44 51 45 45 39 41 53 58 58 53 47 43 40 37 34 33 33 30 29 30 28 29 29 29 28 27 27 26 26 26
10 24 41 45 44 41 27 44 51 57 57 52 48 44 40 38 36 36 33 29 29 26 26 27 28 27 26 27 26 26 26 25
2 4 17 33 45 35 31 43 48 55 50 49 49 45 44 41 39 38 33 31 30 28 28 28 28 27 25 25 25 25 25 25
14 14 10 15 25 38 37 41 46 51 47 48 47 45 47 43 41 38 35 33 32 31 30 28 28 27 24 25 24 24 25 24
18 11 12 22 25 28 31 42 38 32 42 45 46 45 46 45 42 40 37 35 34 33 31 29 28 27 25 25 24 25 25 23
Wind_Direction
200 190 194 198 194 190 186 179 179 180 184 185 188 185 177 181 190 192 188 181 177 173 177 184 194 183 178 172 174 176 171 162
196 190 192 231 237 192 189 181 184 181 184 177 176 177 181 184 187 187 194 184 178 176 174 178 192 189 186 185 167 164 162 157
205 202 212 240 244 199 194 185 184 184 180 183 182 180 181 187 188 199 206 197 185 182 182 182 190 185 189 187 180 167 166 165
191 195 193 222 222 203 196 185 186 186 186 186 186 183 181 183 189 193 194 197 193 189 187 183 186 194 194 195 188 182 169 171
191 191 189 198 197 203 196 187 189 191 188 191 193 188 184 196 193 189 190 196 197 188 186 187 188 191 200 198 197 195 187 173
182 191 198 205 199 212 197 185 189 191 191 196 196 196 200 198 196 193 189 192 199 190 192 196 193 197 206 203 200 203 199 187
197 196 197 198 205 219 219 188 188 191 192 197 199 200 199 200 199 197 192 191 194 194 197 196 196 205 212 209 209 205 199 201
193 192 185 185 202 198 207 190 188 191 195 198 201 205 206 203 201 196 193 190 194 196 199 195 195 200 207 211 213 204 196 197
193 197 201 200 190 204 194 193 191 192 196 197 203 205 200 200 202 198 197 193 194 194 195 199 197 200 208 212 203 200 191 192
195 199 184 187 195 206 196 193 192 192 195 197 201 199 201 203 202 200 197 193 195 196 195 197 199 205 208 205 202 201 200 204
194 191 197 189 191 199 195 190 193 193 194 197 199 200 204 206 199 196 195 193 196 198 198 202 205 207 208 204 203 205 208 212
193 184 195 195 192 200 197 197 192 193 194 195 198 199 204 203 199 196 195 195 193 198 203 208 211 210 210 209 203 209 213 220
198 185 182 184 189 195 192 207 190 193 194 195 198 200 201 199 199 199 196 197 196 199 205 210 214 214 215 215 212 213 217 220
177 173 178 189 192 196 194 209 219 200 196 196 197 201 199 200 201 199 198 199 201 204 207 209 212 216 221 221 222 223 226 228
170 173 178 186 189 197 199 199 202 202 196 198 197 200 201 203 204 203 201 201 205 205 203 205 208 212 215 218 220 223 225 228
168 173 180 185 185 184 196 207 206 198 194 198 203 202 204 206 207 205 204 202 208 205 206 206 209 210 211 212 214 218 219 219
99 173 175 189 199 208 191 192 201 202 200 201 202 205 205 207 209 207 204 206 208 207 209 210 209 211 211 213 215 217 217 217
49 42 223 214 208 197 194 206 201 199 201 202 206 208 208 208 209 208 208 209 210 210 211 211 214 215 214 215 215 217 219 220
40 53 57 210 214 200 198 202 201 199 209 206 209 211 210 208 208 209 211 212 212 215 214 215 217 217 216 219 217 218 221 222
Height
1476 1484 1493 1504 1512 1512 1515 1518 1524 1529 1535 1539 1544 1548 1552 1556 1560 1563 1564 1567 1569 1573 1576 1579 1582 1584 1588 1590 1591 1594 1597 1599
1471 1478 1487 1500 1504 1508 1513 1514 1521 1525 1530 1533 1538 1543 1549 1554 1558 1561 1564 1566 1567 1571 1574 1577 1580 1583 1587 1590 1590 1593 1597 1599
1466 1470 1472 1490 1499 1503 1506 1510 1516 1521 1526 1532 1536 1540 1546 1552 1555 1558 1561 1563 1566 1569 1573 1575 1578 1581 1585 1588 1589 1591 1596 1599
1458 1465 1469 1481 1491 1492 1495 1503 1510 1517 1522 1529 1534 1540 1543 1548 1551 1555 1558 1561 1564 1567 1571 1573 1576 1579 1583 1586 1588 1590 1594 1598
1448 1454 1457 1466 1460 1480 1479 1493 1504 1513 1520 1524 1527 1530 1535 1541 1546 1552 1556 1558 1562 1566 1569 1572 1574 1578 1582 1585 1588 1590 1593 1595
1447 1449 1453 1451 1465 1477 1473 1485 1497 1508 1515 1519 1523 1528 1533 1539 1543 1548 1553 1555 1559 1563 1567 1570 1573 1577 1581 1584 1587 1590 1593 1596
1443 1446 1449 1453 1457 1465 1471 1480 1491 1503 1509 1514 1520 1524 1530 1535 1539 1543 1548 1552 1555 1559 1564 1568 1572 1576 1579 1583 1585 1588 1591 1595
1434 1439 1445 1451 1462 1468 1471 1477 1488 1495 1503 1510 1516 1522 1527 1531 1536 1538 1543 1547 1551 1555 1559 1565 1568 1574 1578 1581 1584 1587 1589 1592
1424 1428 1436 1444 1457 1465 1470 1477 1485 1488 1497 1505 1511 1519 1524 1528 1532 1535 1540 1544 1548 1552 1557 1562 1566 1572 1576 1578 1581 1585 1587 1590
1417 1422 1431 1440 1443 1452 1459 1473 1478 1484 1491 1499 1506 1514 1520 1524 1529 1534 1539 1543 1546 1550 1555 1561 1565 1569 1573 1576 1578 1582 1585 1587
1409 1416 1425 1435 1440 1447 1452 1460 1471 1480 1488 1495 1503 1510 1517 1522 1527 1531 1536 1541 1544 1548 1552 1557 1563 1566 1570 1573 1576 1580 1582 1584
1400 1410 1417 1424 1434 1440 1444 1458 1463 1475 1485 1491 1499 1506 1513 1519 1524 1528 1533 1538 1541 1545 1549 1554 1559 1563 1566 1569 1572 1577 1578 1581
1392 1403 1414 1422 1430 1440 1446 1453 1452 1470 1479 1487 1495 1502 1509 1515 1520 1525 1530 1536 1540 1544 1547 1551 1556 1559 1562 1565 1568 1572 1574 1577
1396 1402 1410 1418 1427 1435 1438 1442 1455 1465 1475 1482 1491 1498 1505 1510 1516 1521 1527 1532 1536 1541 1544 1548 1552 1555 1558 1561 1565 1568 1571 1574
1391 1400 1408 1416 1424 1430 1437 1443 1451 1461 1469 1478 1487 1494 1501 1507 1513 1518 1523 1528 1533 1536 1539 1545 1549 1552 1555 1558 1561 1565 1568 1570
1408 1410 1408 1415 1423 1430 1432 1441 1448 1454 1462 1473 1482 1489 1498 1504 1510 1514 1520 1524 1530 1533 1537 1541 1545 1548 1551 1554 1558 1561 1564 1566
1414 1416 1417 1422 1422 1423 1424 1428 1444 1453 1459 1469 1478 1483 1492 1498 1505 1510 1515 1520 1525 1529 1533 1537 1540 1544 1547 1551 1555 1557 1561 1563
1417 1417 1419 1420 1424 1424 1428 1435 1442 1447 1459 1467 1473 1480 1486 1493 1500 1506 1510 1515 1521 1525 1529 1533 1536 1540 1544 1548 1551 1554 1557 1560
1420 1423 1422 1422 1424 1430 1435 1437 1443 1448 1454 1461 1467 1475 1481 1488 1495 1501 1506 1511 1515 1520 1524 1528 1532 1536 1540 1544 1547 1551 1554 1556